Temp
36 35 35 35 35 35 34 34 35 35 35 34 34 34 34 34 35 35 35 36 36 36 36 36 37 38 39 39 39 39 39 40 40 40 41 41 40 41 41 41 41 41 41 41 41 41 41 42 41 41 41 41 41 42 42 43 43 43 43 43 43 44 44 44 45 46 47 48 49
35 35 35 35 35 34 34 34 34 34 34 34 34 34 34 34 34 35 35 35 35 36 36 36 37 37 38 38 39 39 39 39 39 40 40 40 41 41 41 40 40 41 41 41 41 41 41 41 40 40 41 41 42 42 42 43 44 43 43 43 44 44 44 44 45 47 48 49 49
35 35 35 34 34 33 33 33 33 33 33 33 34 34 34 34 34 34 34 35 35 35 36 36 36 37 37 38 39 39 39 39 39 40 40 40 40 40 40 40 40 40 41 41 41 41 40 40 40 40 40 41 41 41 42 43 43 43 43 43 44 44 45 45 46 47 48 49 49
35 34 34 33 33 32 32 32 32 32 33 33 34 34 34 35 35 35 34 34 35 35 35 35 36 37 37 38 38 38 39 39 39 39 39 39 39 40 40 40 40 40 40 41 41 41 41 40 39 40 40 41 41 41 42 43 44 43 43 44 44 45 45 45 47 47 48 49 49
34 34 34 33 33 33 32 32 32 32 33 33 34 34 34 34 34 34 34 34 34 34 35 35 36 36 37 37 37 38 38 39 39 39 39 39 39 39 39 40 39 39 39 40 40 41 40 39 39 40 41 41 41 42 43 44 44 44 44 44 45 45 45 46 47 48 48 48 49
33 34 33 33 33 33 33 32 32 32 32 33 33 33 33 34 33 33 33 33 33 34 35 36 36 36 36 36 37 37 38 38 39 39 39 39 39 39 39 39 39 39 39 40 40 40 40 39 39 40 41 42 43 43 44 44 44 44 44 44 45 45 46 46 47 48 48 48 48
33 33 33 33 33 32 32 32 32 32 32 33 33 33 32 33 33 32 32 33 34 34 35 35 35 35 35 36 36 36 37 38 38 39 39 38 38 39 39 39 39 39 39 39 40 40 39 39 39 39 40 41 42 43 44 44 44 43 43 43 45 45 46 47 47 47 47 47 47
33 33 32 32 32 32 31 31 31 32 32 32 32 32 32 32 32 32 32 33 33 34 34 34 34 34 35 35 35 36 37 38 38 38 38 38 38 38 39 39 38 38 38 39 39 39 39 38 39 39 39 39 40 41 41 42 43 43 43 44 45 46 46 46 47 47 47 47 47
32 32 32 32 31 31 31 31 31 31 31 31 32 32 32 32 32 32 32 32 33 33 34 34 34 34 34 35 35 36 37 37 38 38 38 38 38 38 38 38 38 37 38 38 38 39 39 38 38 38 38 38 38 38 39 39 40 41 42 44 45 45 46 46 46 46 46 46 46
30 31 31 31 31 30 30 30 30 31 31 31 31 31 31 32 31 31 31 32 33 33 33 33 33 34 34 34 35 36 36 37 37 37 37 37 37 37 37 37 37 37 37 37 38 38 38 38 37 37 37 37 37 37 37 38 38 39 40 42 43 44 45 45 45 45 45 46 45
29 30 30 30 30 30 30 29 30 30 30 30 30 30 31 31 31 31 31 32 32 32 32 33 33 33 33 34 34 35 36 37 37 37 37 37 37 37 36 36 36 36 36 37 37 38 38 37 37 37 37 37 37 37 37 37 37 37 37 38 40 41 42 43 43 44 44 45 45
28 29 29 29 28 28 28 28 28 29 29 29 29 29 30 30 30 31 31 31 30 31 31 32 32 32 33 33 34 35 36 37 37 37 37 36 36 36 36 36 36 36 36 36 37 37 37 37 36 36 37 38 37 36 36 36 36 36 36 37 37 38 39 40 41 42 43 43 44
27 27 27 27 27 27 27 27 27 28 28 29 29 29 29 30 30 30 30 30 29 30 31 31 32 32 32 33 33 34 35 36 37 37 37 37 36 36 35 35 35 35 35 35 36 36 36 37 36 36 36 37 36 36 36 36 36 35 35 36 36 36 37 37 39 40 41 42 42
26 26 26 26 26 26 26 26 27 27 28 28 28 28 29 29 30 30 30 29 29 29 30 30 31 32 32 32 33 34 35 36 36 37 37 37 36 36 35 34 34 34 34 34 35 35 36 36 36 36 35 35 36 36 36 36 36 35 35 35 35 35 35 36 37 38 39 40 41
25 25 25 25 25 25 25 25 26 26 27 27 27 28 28 29 29 29 29 29 28 29 29 29 30 31 32 32 33 33 34 35 36 36 36 36 36 36 35 34 34 34 34 34 34 34 35 35 36 35 35 35 35 36 36 36 36 35 35 35 35 35 35 35 36 36 37 38 39
24 24 24 24 24 24 24 25 25 26 26 26 27 27 28 28 28 29 28 28 28 28 28 28 29 29 31 32 33 33 33 34 35 35 35 35 35 35 34 34 34 34 34 34 34 34 34 35 35 35 35 35 35 35 35 36 36 36 35 35 35 35 35 35 35 35 36 36 37
23 23 23 23 23 23 24 24 25 25 26 26 26 27 27 28 28 28 28 27 27 27 27 27 28 28 29 31 32 32 32 33 34 34 34 34 34 34 33 34 34 34 34 33 33 33 34 35 35 35 35 35 35 35 35 35 35 35 35 35 35 35 35 35 35 35 35 35 36
22 22 23 23 22 23 23 24 24 25 25 25 26 26 27 27 27 27 27 27 27 26 25 26 27 27 28 29 30 31 31 32 32 33 33 33 33 33 33 33 34 34 34 33 33 33 33 34 35 35 35 35 35 35 35 35 35 35 35 35 35 35 34 34 34 34 34 35 35
22 22 22 22 22 22 23 23 24 24 25 25 25 25 26 26 26 26 26 26 26 26 25 25 26 27 27 28 29 30 30 31 31 32 32 33 33 33 33 33 34 34 33 33 33 33 33 34 35 35 35 35 34 34 34 34 34 34 34 34 34 34 34 34 34 34 34 35 35
21 21 21 21 22 22 23 23 23 24 24 24 25 25 25 25 26 25 25 25 26 26 25 25 25 26 27 28 28 29 30 30 30 31 31 32 32 33 33 33 33 33 33 33 33 33 33 35 35 35 35 34 34 34 34 34 34 33 33 34 34 34 33 33 33 34 34 35 35
21 21 21 22 22 22 23 23 24 24 24 24 24 25 25 25 25 25 25 25 25 25 25 25 25 26 26 27 27 28 29 30 30 30 30 31 32 32 33 33 33 33 33 32 32 33 33 35 35 35 34 34 34 34 34 34 34 33 33 34 34 34 34 34 34 34 34 34 34
20 21 21 22 22 23 23 24 24 24 24 24 24 25 25 25 25 25 25 25 25 25 25 25 25 26 26 27 27 27 28 29 29 29 30 30 31 32 32 33 33 32 32 32 32 33 33 35 35 34 34 33 33 33 33 33 33 33 33 34 34 34 34 34 34 34 34 34 34
20 21 21 22 22 23 24 24 24 24 24 24 24 25 25 25 25 25 25 24 24 24 24 24 25 26 26 27 27 27 27 28 28 29 29 30 31 31 32 32 32 32 31 31 32 33 34 35 34 33 33 33 32 32 32 33 33 33 33 33 33 33 34 34 34 34 34 34 34
20 21 21 22 22 23 23 24 24 24 24 24 24 24 24 24 24 24 24 23 23 23 23 24 25 26 26 26 27 27 27 27 27 28 29 29 30 31 31 32 31 31 31 31 34 35 36 36 35 34 33 32 32 32 32 32 32 32 32 32 32 33 33 33 33 33 34 34 34
20 21 22 22 22 23 23 23 23 23 23 24 24 24 24 24 24 23 23 23 23 23 23 24 25 25 26 26 26 26 26 27 27 27 28 29 30 31 31 31 31 31 32 33 36 39 40 40 38 36 34 33 33 33 33 33 33 32 32 32 32 32 32 33 33 33 33 33 33
20 21 21 22 22 23 23 23 23 23 23 24 24 24 24 23 23 22 22 22 22 22 23 24 25 25 26 26 26 26 26 27 27 27 28 28 29 30 31 31 31 31 32 34 37 40 41 41 40 38 36 34 33 33 33 33 33 33 33 32 32 32 32 32 32 33 33 33 33
20 21 21 22 22 22 22 23 23 23 23 24 24 24 23 23 22 22 21 21 21 22 23 24 25 26 26 26 25 25 26 26 27 27 28 28 29 30 30 30 30 30 32 35 38 40 41 41 41 39 37 34 34 33 33 33 33 33 33 32 32 32 32 32 32 32 33 33 33
21 21 22 22 22 22 22 22 22 22 23 24 24 23 23 22 22 21 21 21 21 22 23 24 25 25 26 26 25 25 26 27 27 28 28 29 29 29 30 30 30 31 33 36 38 39 40 41 41 40 38 36 34 33 33 33 33 33 33 32 32 32 32 32 33 33 33 33 33
21 22 22 22 22 22 23 22 22 22 23 24 24 23 22 22 21 21 21 20 21 22 23 24 25 25 25 25 25 26 26 27 28 28 29 29 30 30 30 30 30 31 34 37 38 39 39 41 40 40 39 37 35 34 34 34 33 33 33 33 32 32 33 33 33 33 33 33 34
21 22 22 22 22 22 22 22 22 23 23 24 23 22 21 21 20 20 20 20 21 22 23 24 24 24 24 24 25 26 26 27 28 28 29 29 29 30 30 30 30 31 33 36 38 39 39 40 40 39 39 37 36 35 34 35 34 34 33 33 32 32 33 33 33 33 34 34 34
21 22 22 22 21 21 21 21 22 23 23 24 23 22 21 20 20 20 21 21 22 23 24 24 24 24 24 25 25 26 26 27 28 29 29 29 29 30 30 30 30 31 33 36 37 39 39 39 39 39 38 37 35 34 34 34 34 34 33 33 32 32 32 33 33 33 34 34 34
21 21 21 21 21 21 21 21 22 22 23 23 22 21 21 20 20 21 21 22 23 23 23 23 23 23 24 25 25 26 26 27 28 29 29 29 29 30 30 30 30 31 33 36 37 38 39 39 38 38 38 37 35 34 34 34 34 34 34 33 33 32 32 32 32 33 33 34 34
21 21 21 21 21 21 21 21 21 22 22 22 22 21 21 20 21 21 21 22 23 23 22 22 23 23 24 24 25 25 26 27 28 29 30 30 30 30 30 30 30 31 33 36 37 38 39 39 38 37 37 36 35 34 34 34 34 34 34 33 33 33 33 32 32 32 33 34 35
20 21 21 20 20 20 20 21 21 22 22 22 21 21 21 20 20 20 21 22 22 22 22 22 23 23 24 25 25 26 27 28 29 29 29 30 30 30 30 30 30 31 34 35 36 38 39 39 38 37 36 36 34 33 33 34 34 34 34 34 33 33 33 33 32 32 33 35 35
20 20 20 20 20 20 20 20 21 21 21 21 21 21 21 20 20 20 21 22 22 22 22 23 23 24 25 26 26 27 27 28 28 29 29 30 30 30 30 30 30 31 33 35 36 37 38 38 37 36 36 35 33 33 33 33 33 33 33 33 33 33 33 33 33 32 33 35 36
20 20 20 20 20 20 20 20 21 21 21 21 21 20 20 20 20 21 21 22 22 22 21 22 23 24 25 25 26 27 27 27 28 29 29 29 29 29 30 29 29 30 32 34 35 37 38 38 37 36 35 34 33 32 32 32 33 33 33 33 33 33 33 34 33 33 33 35 36
20 20 20 19 19 20 20 20 21 21 21 21 20 20 20 20 20 21 22 22 21 21 21 22 23 23 24 25 26 27 28 28 29 29 29 29 29 29 29 29 29 29 31 33 35 37 38 38 37 36 35 34 33 32 32 32 32 33 33 33 33 33 33 34 33 33 33 34 36
20 20 19 19 19 19 20 20 20 21 21 21 21 20 20 20 20 21 21 22 21 20 20 21 22 23 24 25 26 27 28 29 29 28 28 28 29 29 29 29 28 29 31 33 35 37 38 39 37 36 35 33 33 32 32 32 32 32 32 32 33 33 34 34 34 33 33 34 36
20 20 19 19 19 19 20 20 20 21 21 21 21 21 21 21 21 21 21 22 21 20 20 21 22 23 24 25 26 27 28 29 29 28 28 28 29 30 30 29 29 29 31 33 35 36 38 38 37 36 35 34 33 32 32 32 32 32 32 32 32 33 33 34 34 34 34 34 37
20 20 20 20 20 19 20 20 21 21 21 21 21 21 21 21 21 21 21 21 21 21 21 22 23 23 24 26 26 27 27 28 28 28 28 28 29 30 30 29 29 30 31 33 35 36 38 38 36 35 34 33 33 32 32 32 32 32 32 32 32 32 33 33 34 34 35 35 37
21 21 20 20 20 20 20 20 21 22 22 22 21 21 21 21 21 21 21 21 21 21 22 22 23 24 24 25 26 26 27 27 27 27 28 28 29 29 30 29 29 30 31 32 34 36 37 37 36 35 34 33 33 32 32 32 31 31 31 31 31 32 32 33 33 34 35 35 37
MSLP
1030.42 1030.22 1030.06 1029.90 1029.70 1029.50 1029.30 1029.06 1028.86 1028.62 1028.46 1028.22 1027.94 1027.58 1027.22 1026.86 1026.54 1026.22 1025.98 1025.74 1025.46 1025.18 1024.82 1024.50 1024.18 1023.82 1023.46 1023.06 1022.74 1022.42 1022.10 1021.74 1021.46 1021.10 1020.74 1020.46 1020.10 1019.78 1019.46 1019.14 1018.82 1018.46 1018.02 1017.62 1017.22 1016.82 1016.46 1016.10 1015.74 1015.42 1015.02 1014.66 1014.34 1014.10 1013.90 1013.74 1013.50 1013.30 1013.06 1012.86 1012.62 1012.34 1012.14 1011.90 1011.62 1011.34 1011.10 1010.82 1010.62
1030.46 1030.30 1030.14 1030.02 1029.86 1029.66 1029.46 1029.22 1028.98 1028.78 1028.62 1028.38 1028.06 1027.70 1027.30 1027.02 1026.74 1026.42 1026.18 1025.90 1025.66 1025.34 1024.98 1024.62 1024.26 1023.90 1023.50 1023.10 1022.78 1022.46 1022.10 1021.74 1021.38 1021.02 1020.70 1020.38 1020.02 1019.74 1019.42 1019.06 1018.70 1018.34 1017.90 1017.46 1017.02 1016.66 1016.30 1015.90 1015.54 1015.14 1014.70 1014.30 1013.98 1013.70 1013.46 1013.30 1013.14 1012.90 1012.70 1012.50 1012.30 1012.06 1011.82 1011.58 1011.26 1010.98 1010.74 1010.50 1010.34
1030.50 1030.34 1030.18 1030.02 1029.94 1029.74 1029.54 1029.30 1029.06 1028.90 1028.66 1028.38 1028.10 1027.74 1027.46 1027.18 1026.90 1026.62 1026.34 1026.10 1025.82 1025.46 1025.06 1024.66 1024.26 1023.90 1023.50 1023.10 1022.78 1022.46 1022.10 1021.74 1021.34 1021.02 1020.66 1020.34 1019.98 1019.62 1019.30 1019.02 1018.62 1018.18 1017.78 1017.34 1016.90 1016.54 1016.18 1015.78 1015.34 1014.90 1014.38 1013.94 1013.62 1013.34 1013.10 1012.90 1012.74 1012.62 1012.38 1012.18 1011.98 1011.74 1011.50 1011.22 1010.90 1010.62 1010.42 1010.18 1010.02
1030.58 1030.38 1030.26 1030.10 1029.98 1029.82 1029.62 1029.46 1029.22 1028.98 1028.70 1028.42 1028.10 1027.78 1027.50 1027.26 1027.02 1026.74 1026.46 1026.18 1025.78 1025.46 1025.10 1024.74 1024.34 1023.90 1023.50 1023.18 1022.78 1022.42 1022.02 1021.66 1021.30 1020.94 1020.62 1020.26 1019.94 1019.62 1019.26 1018.90 1018.50 1018.10 1017.70 1017.26 1016.82 1016.42 1016.06 1015.66 1015.14 1014.62 1014.10 1013.66 1013.30 1013.02 1012.78 1012.54 1012.38 1012.26 1012.06 1011.82 1011.62 1011.42 1011.18 1010.90 1010.62 1010.34 1010.10 1009.90 1009.70
1030.62 1030.46 1030.34 1030.22 1030.06 1029.90 1029.74 1029.58 1029.34 1029.06 1028.78 1028.46 1028.14 1027.82 1027.58 1027.30 1027.10 1026.82 1026.54 1026.18 1025.82 1025.46 1025.14 1024.78 1024.38 1023.98 1023.58 1023.22 1022.86 1022.42 1021.98 1021.62 1021.26 1020.90 1020.62 1020.22 1019.90 1019.54 1019.18 1018.82 1018.46 1018.06 1017.66 1017.18 1016.78 1016.34 1015.94 1015.50 1014.98 1014.46 1013.90 1013.46 1013.06 1012.74 1012.46 1012.30 1012.10 1011.94 1011.74 1011.54 1011.30 1011.10 1010.86 1010.58 1010.30 1010.02 1009.82 1009.62 1009.50
1030.74 1030.58 1030.42 1030.30 1030.14 1029.98 1029.86 1029.66 1029.46 1029.18 1028.90 1028.50 1028.18 1027.90 1027.66 1027.42 1027.18 1026.90 1026.62 1026.26 1025.90 1025.46 1025.10 1024.74 1024.38 1024.02 1023.62 1023.26 1022.86 1022.42 1021.98 1021.54 1021.22 1020.90 1020.62 1020.22 1019.86 1019.50 1019.14 1018.78 1018.50 1018.14 1017.70 1017.22 1016.74 1016.34 1015.98 1015.54 1014.98 1014.46 1013.90 1013.42 1012.98 1012.58 1012.30 1012.06 1011.90 1011.66 1011.46 1011.22 1010.98 1010.74 1010.54 1010.26 1009.98 1009.74 1009.62 1009.46 1009.38
1030.90 1030.70 1030.50 1030.34 1030.18 1030.02 1029.90 1029.70 1029.46 1029.22 1028.90 1028.54 1028.22 1027.98 1027.74 1027.50 1027.22 1026.98 1026.66 1026.30 1025.90 1025.46 1025.06 1024.74 1024.46 1024.10 1023.70 1023.30 1022.86 1022.38 1021.94 1021.54 1021.18 1020.90 1020.62 1020.26 1019.90 1019.54 1019.18 1018.82 1018.54 1018.18 1017.78 1017.30 1016.86 1016.42 1016.02 1015.62 1015.10 1014.62 1014.14 1013.70 1013.18 1012.70 1012.30 1012.02 1011.74 1011.46 1011.18 1010.94 1010.66 1010.42 1010.18 1009.94 1009.74 1009.58 1009.46 1009.34 1009.30
1031.02 1030.78 1030.62 1030.42 1030.30 1030.14 1029.94 1029.74 1029.54 1029.26 1028.94 1028.58 1028.34 1028.06 1027.82 1027.58 1027.30 1027.02 1026.66 1026.30 1025.90 1025.50 1025.18 1024.78 1024.46 1024.14 1023.74 1023.30 1022.90 1022.42 1021.98 1021.54 1021.18 1020.90 1020.62 1020.34 1019.94 1019.58 1019.22 1018.90 1018.62 1018.26 1017.90 1017.46 1016.94 1016.46 1016.10 1015.74 1015.30 1014.82 1014.42 1013.98 1013.46 1013.02 1012.62 1012.26 1011.82 1011.42 1011.02 1010.66 1010.34 1010.10 1009.86 1009.70 1009.62 1009.50 1009.42 1009.30 1009.18
1031.10 1030.86 1030.66 1030.46 1030.34 1030.18 1029.98 1029.78 1029.58 1029.30 1028.98 1028.66 1028.42 1028.18 1027.94 1027.66 1027.38 1027.02 1026.70 1026.34 1025.90 1025.62 1025.26 1024.90 1024.46 1024.10 1023.74 1023.30 1022.90 1022.42 1021.98 1021.58 1021.26 1020.94 1020.62 1020.34 1019.94 1019.62 1019.30 1018.98 1018.66 1018.34 1017.94 1017.54 1017.06 1016.62 1016.18 1015.82 1015.42 1015.02 1014.66 1014.26 1013.82 1013.42 1013.02 1012.62 1012.14 1011.62 1011.10 1010.62 1010.18 1009.90 1009.70 1009.58 1009.58 1009.46 1009.34 1009.22 1009.10
1031.22 1030.98 1030.74 1030.54 1030.34 1030.18 1030.02 1029.78 1029.58 1029.30 1028.98 1028.70 1028.46 1028.26 1028.02 1027.70 1027.46 1027.14 1026.78 1026.42 1026.02 1025.66 1025.30 1024.90 1024.54 1024.14 1023.74 1023.30 1022.90 1022.46 1022.02 1021.62 1021.30 1020.94 1020.62 1020.34 1020.02 1019.70 1019.42 1019.10 1018.78 1018.46 1018.06 1017.62 1017.18 1016.70 1016.30 1015.90 1015.54 1015.18 1014.78 1014.46 1014.02 1013.62 1013.18 1012.86 1012.42 1011.94 1011.46 1010.94 1010.50 1010.18 1009.90 1009.78 1009.70 1009.54 1009.38 1009.18 1009.06
1031.38 1031.14 1030.90 1030.74 1030.54 1030.34 1030.10 1029.86 1029.54 1029.26 1029.02 1028.74 1028.50 1028.30 1028.02 1027.74 1027.46 1027.18 1026.86 1026.50 1026.14 1025.74 1025.30 1024.94 1024.54 1024.18 1023.74 1023.30 1022.90 1022.46 1022.06 1021.66 1021.30 1020.98 1020.66 1020.34 1020.02 1019.74 1019.50 1019.22 1018.90 1018.58 1018.18 1017.74 1017.30 1016.86 1016.38 1016.02 1015.62 1015.30 1014.90 1014.54 1014.14 1013.70 1013.30 1012.94 1012.58 1012.18 1011.86 1011.50 1011.14 1010.74 1010.38 1010.14 1009.94 1009.70 1009.46 1009.30 1009.06
1031.58 1031.30 1031.10 1030.90 1030.74 1030.46 1030.18 1029.90 1029.62 1029.30 1029.02 1028.78 1028.54 1028.34 1028.06 1027.78 1027.50 1027.22 1026.90 1026.54 1026.18 1025.78 1025.34 1025.02 1024.62 1024.18 1023.74 1023.38 1022.94 1022.50 1022.06 1021.66 1021.30 1020.98 1020.62 1020.30 1020.02 1019.74 1019.50 1019.26 1018.98 1018.62 1018.26 1017.82 1017.46 1017.02 1016.54 1016.18 1015.78 1015.42 1015.02 1014.62 1014.30 1013.90 1013.46 1013.06 1012.74 1012.42 1012.10 1011.78 1011.46 1011.14 1010.82 1010.46 1010.18 1009.90 1009.66 1009.42 1009.18
1031.78 1031.54 1031.30 1031.10 1030.90 1030.62 1030.30 1030.02 1029.70 1029.38 1029.10 1028.86 1028.62 1028.34 1028.10 1027.82 1027.54 1027.22 1026.90 1026.58 1026.22 1025.82 1025.42 1025.02 1024.62 1024.22 1023.82 1023.42 1023.02 1022.58 1022.14 1021.70 1021.30 1020.90 1020.58 1020.26 1019.98 1019.74 1019.46 1019.22 1018.98 1018.66 1018.34 1017.94 1017.58 1017.18 1016.74 1016.34 1015.94 1015.58 1015.18 1014.78 1014.46 1014.06 1013.70 1013.30 1012.94 1012.62 1012.34 1012.02 1011.74 1011.42 1011.14 1010.82 1010.50 1010.18 1009.90 1009.62 1009.30
1031.94 1031.70 1031.46 1031.22 1030.98 1030.70 1030.38 1030.10 1029.78 1029.46 1029.18 1028.90 1028.66 1028.42 1028.14 1027.86 1027.54 1027.26 1026.90 1026.62 1026.30 1025.90 1025.50 1025.10 1024.70 1024.30 1023.90 1023.46 1023.02 1022.62 1022.18 1021.70 1021.26 1020.86 1020.50 1020.18 1019.90 1019.70 1019.46 1019.18 1018.94 1018.62 1018.34 1018.02 1017.66 1017.30 1016.90 1016.42 1016.02 1015.70 1015.34 1014.98 1014.62 1014.22 1013.86 1013.46 1013.14 1012.82 1012.50 1012.18 1011.94 1011.66 1011.42 1011.14 1010.82 1010.50 1010.18 1009.86 1009.54
1032.02 1031.82 1031.62 1031.34 1031.10 1030.82 1030.50 1030.22 1029.90 1029.58 1029.26 1029.02 1028.74 1028.50 1028.22 1027.90 1027.58 1027.30 1027.02 1026.66 1026.34 1025.98 1025.62 1025.18 1024.78 1024.38 1023.94 1023.50 1023.06 1022.62 1022.18 1021.70 1021.26 1020.82 1020.46 1020.10 1019.86 1019.62 1019.42 1019.18 1018.86 1018.58 1018.26 1017.94 1017.66 1017.34 1016.94 1016.54 1016.14 1015.82 1015.46 1015.14 1014.74 1014.38 1014.02 1013.62 1013.30 1012.98 1012.70 1012.42 1012.18 1011.90 1011.62 1011.38 1011.06 1010.78 1010.46 1010.14 1009.74
1032.10 1031.90 1031.66 1031.42 1031.18 1030.90 1030.62 1030.34 1030.02 1029.70 1029.38 1029.14 1028.90 1028.62 1028.34 1027.98 1027.62 1027.34 1027.02 1026.74 1026.34 1026.02 1025.66 1025.30 1024.90 1024.46 1023.98 1023.50 1023.10 1022.66 1022.18 1021.74 1021.30 1020.86 1020.46 1020.10 1019.82 1019.62 1019.34 1019.06 1018.78 1018.46 1018.18 1017.90 1017.62 1017.30 1016.98 1016.58 1016.22 1015.90 1015.62 1015.30 1014.90 1014.54 1014.18 1013.74 1013.42 1013.10 1012.86 1012.58 1012.34 1012.06 1011.82 1011.54 1011.30 1011.02 1010.74 1010.42 1010.02
1032.18 1031.94 1031.74 1031.46 1031.22 1030.98 1030.74 1030.46 1030.14 1029.82 1029.54 1029.22 1028.98 1028.70 1028.38 1028.02 1027.74 1027.42 1027.10 1026.78 1026.46 1026.06 1025.70 1025.34 1024.98 1024.54 1024.02 1023.54 1023.10 1022.70 1022.30 1021.82 1021.34 1020.90 1020.54 1020.18 1019.90 1019.62 1019.30 1019.02 1018.74 1018.42 1018.10 1017.86 1017.58 1017.30 1016.94 1016.58 1016.22 1015.90 1015.62 1015.34 1015.02 1014.70 1014.34 1013.94 1013.58 1013.26 1012.98 1012.70 1012.46 1012.18 1011.94 1011.74 1011.46 1011.22 1010.94 1010.62 1010.26
1032.18 1031.98 1031.74 1031.50 1031.26 1031.02 1030.74 1030.46 1030.18 1029.90 1029.62 1029.30 1029.02 1028.74 1028.46 1028.10 1027.78 1027.46 1027.18 1026.86 1026.50 1026.14 1025.74 1025.34 1024.98 1024.58 1024.10 1023.62 1023.18 1022.82 1022.38 1021.90 1021.46 1021.02 1020.62 1020.34 1020.02 1019.70 1019.38 1019.02 1018.70 1018.34 1018.02 1017.78 1017.58 1017.26 1016.94 1016.58 1016.22 1015.90 1015.66 1015.42 1015.14 1014.78 1014.46 1014.10 1013.74 1013.42 1013.14 1012.82 1012.58 1012.30 1012.06 1011.86 1011.62 1011.42 1011.18 1010.82 1010.46
1032.26 1032.02 1031.78 1031.54 1031.30 1031.02 1030.74 1030.46 1030.18 1029.90 1029.62 1029.30 1029.06 1028.74 1028.46 1028.14 1027.82 1027.50 1027.14 1026.78 1026.46 1026.18 1025.78 1025.38 1024.94 1024.54 1024.14 1023.74 1023.30 1022.86 1022.46 1022.02 1021.58 1021.10 1020.74 1020.46 1020.10 1019.74 1019.38 1019.02 1018.62 1018.30 1018.02 1017.74 1017.50 1017.22 1016.90 1016.54 1016.18 1015.94 1015.70 1015.46 1015.18 1014.86 1014.50 1014.18 1013.86 1013.58 1013.26 1012.98 1012.70 1012.46 1012.18 1011.94 1011.74 1011.54 1011.30 1011.02 1010.70
1032.34 1032.06 1031.86 1031.58 1031.34 1031.06 1030.74 1030.46 1030.18 1029.90 1029.62 1029.30 1029.02 1028.70 1028.38 1028.10 1027.78 1027.46 1027.18 1026.78 1026.46 1026.18 1025.82 1025.42 1025.02 1024.58 1024.14 1023.74 1023.30 1022.90 1022.46 1022.06 1021.66 1021.22 1020.86 1020.50 1020.18 1019.78 1019.38 1019.02 1018.62 1018.26 1017.94 1017.66 1017.42 1017.14 1016.82 1016.46 1016.18 1015.94 1015.74 1015.46 1015.18 1014.90 1014.54 1014.22 1013.94 1013.66 1013.34 1013.06 1012.82 1012.62 1012.34 1012.10 1011.86 1011.62 1011.38 1011.10 1010.82
1032.42 1032.18 1031.90 1031.62 1031.38 1031.06 1030.74 1030.46 1030.18 1029.86 1029.54 1029.26 1028.98 1028.66 1028.34 1028.02 1027.74 1027.46 1027.18 1026.82 1026.46 1026.14 1025.78 1025.42 1025.02 1024.62 1024.18 1023.74 1023.30 1022.90 1022.54 1022.18 1021.78 1021.38 1021.02 1020.62 1020.26 1019.86 1019.46 1019.02 1018.70 1018.30 1017.90 1017.58 1017.30 1017.02 1016.70 1016.34 1016.14 1015.94 1015.74 1015.50 1015.22 1014.94 1014.66 1014.34 1014.02 1013.74 1013.46 1013.18 1012.94 1012.70 1012.46 1012.22 1011.94 1011.74 1011.46 1011.22 1010.94
1032.46 1032.22 1031.94 1031.66 1031.38 1031.06 1030.74 1030.46 1030.10 1029.78 1029.50 1029.22 1028.90 1028.62 1028.30 1028.02 1027.74 1027.46 1027.18 1026.82 1026.46 1026.14 1025.74 1025.42 1025.02 1024.62 1024.22 1023.82 1023.42 1023.02 1022.66 1022.26 1021.86 1021.46 1021.14 1020.74 1020.34 1019.90 1019.50 1019.14 1018.74 1018.34 1017.90 1017.46 1017.14 1016.78 1016.50 1016.30 1016.14 1015.98 1015.78 1015.54 1015.30 1015.02 1014.78 1014.50 1014.18 1013.90 1013.58 1013.30 1013.02 1012.82 1012.58 1012.34 1012.10 1011.90 1011.62 1011.38 1011.14
1032.50 1032.22 1031.94 1031.66 1031.34 1031.02 1030.70 1030.38 1030.02 1029.74 1029.46 1029.18 1028.82 1028.54 1028.26 1027.94 1027.74 1027.46 1027.14 1026.82 1026.46 1026.10 1025.74 1025.42 1025.02 1024.62 1024.22 1023.86 1023.50 1023.18 1022.74 1022.34 1021.90 1021.50 1021.18 1020.82 1020.38 1019.90 1019.50 1019.18 1018.86 1018.42 1017.94 1017.50 1017.02 1016.62 1016.34 1016.18 1016.06 1015.94 1015.78 1015.58 1015.34 1015.14 1014.90 1014.62 1014.34 1014.02 1013.74 1013.46 1013.18 1012.94 1012.74 1012.54 1012.30 1012.02 1011.78 1011.58 1011.30
1032.50 1032.22 1031.90 1031.62 1031.30 1030.98 1030.62 1030.30 1029.98 1029.66 1029.38 1029.10 1028.78 1028.46 1028.22 1027.94 1027.70 1027.42 1027.10 1026.74 1026.46 1026.10 1025.74 1025.38 1025.02 1024.62 1024.22 1023.86 1023.54 1023.18 1022.82 1022.38 1021.94 1021.54 1021.14 1020.82 1020.38 1019.94 1019.54 1019.26 1018.90 1018.54 1018.06 1017.54 1017.02 1016.54 1016.18 1016.02 1015.98 1015.90 1015.78 1015.62 1015.46 1015.26 1015.02 1014.74 1014.46 1014.18 1013.90 1013.62 1013.34 1013.14 1012.94 1012.74 1012.50 1012.22 1011.98 1011.78 1011.58
1032.50 1032.18 1031.86 1031.58 1031.18 1030.90 1030.58 1030.22 1029.90 1029.62 1029.34 1029.02 1028.74 1028.46 1028.18 1027.98 1027.74 1027.42 1027.06 1026.74 1026.42 1026.06 1025.74 1025.34 1024.98 1024.58 1024.18 1023.82 1023.50 1023.18 1022.82 1022.46 1022.02 1021.62 1021.18 1020.74 1020.34 1019.98 1019.62 1019.30 1019.02 1018.70 1018.22 1017.62 1016.90 1016.34 1015.98 1015.78 1015.90 1015.90 1015.82 1015.74 1015.58 1015.34 1015.14 1014.90 1014.62 1014.34 1014.06 1013.82 1013.58 1013.34 1013.14 1012.90 1012.66 1012.46 1012.26 1012.02 1011.86
1032.46 1032.14 1031.78 1031.50 1031.18 1030.82 1030.50 1030.18 1029.94 1029.66 1029.38 1029.02 1028.70 1028.42 1028.18 1028.02 1027.74 1027.46 1027.10 1026.74 1026.46 1026.06 1025.70 1025.30 1024.90 1024.54 1024.18 1023.82 1023.50 1023.18 1022.82 1022.46 1022.06 1021.70 1021.30 1020.90 1020.42 1020.02 1019.66 1019.38 1019.14 1018.82 1018.38 1017.74 1016.98 1016.34 1015.98 1015.82 1015.86 1015.90 1015.90 1015.82 1015.70 1015.46 1015.26 1015.02 1014.78 1014.50 1014.22 1014.02 1013.82 1013.62 1013.34 1013.10 1012.90 1012.66 1012.46 1012.30 1012.10
1032.38 1032.02 1031.74 1031.42 1031.14 1030.82 1030.50 1030.22 1029.98 1029.70 1029.30 1028.94 1028.66 1028.46 1028.26 1028.02 1027.78 1027.46 1027.14 1026.78 1026.46 1026.14 1025.74 1025.26 1024.90 1024.58 1024.22 1023.90 1023.50 1023.18 1022.82 1022.46 1022.06 1021.74 1021.34 1020.98 1020.54 1020.14 1019.78 1019.46 1019.18 1018.90 1018.46 1017.86 1017.18 1016.62 1016.22 1015.98 1015.90 1015.90 1015.90 1015.90 1015.74 1015.58 1015.38 1015.14 1014.90 1014.66 1014.42 1014.18 1014.02 1013.82 1013.62 1013.34 1013.18 1012.94 1012.74 1012.54 1012.34
1032.34 1032.02 1031.74 1031.38 1031.06 1030.78 1030.50 1030.26 1030.02 1029.70 1029.30 1028.94 1028.70 1028.54 1028.34 1028.06 1027.78 1027.50 1027.18 1026.86 1026.46 1026.06 1025.66 1025.22 1024.90 1024.62 1024.34 1023.98 1023.58 1023.18 1022.82 1022.46 1022.10 1021.74 1021.34 1020.98 1020.66 1020.34 1019.94 1019.62 1019.30 1018.94 1018.46 1017.90 1017.30 1016.82 1016.42 1016.06 1015.94 1015.90 1015.86 1015.86 1015.78 1015.66 1015.46 1015.30 1015.02 1014.82 1014.62 1014.42 1014.22 1014.02 1013.82 1013.62 1013.42 1013.22 1013.02 1012.82 1012.62
1032.38 1032.02 1031.74 1031.38 1031.10 1030.82 1030.54 1030.30 1030.02 1029.74 1029.34 1029.02 1028.74 1028.58 1028.38 1028.10 1027.82 1027.50 1027.18 1026.86 1026.46 1026.10 1025.70 1025.30 1025.02 1024.74 1024.42 1024.02 1023.66 1023.26 1022.86 1022.50 1022.18 1021.78 1021.38 1021.02 1020.70 1020.38 1020.06 1019.74 1019.42 1019.02 1018.54 1017.94 1017.38 1016.94 1016.58 1016.18 1015.94 1015.86 1015.86 1015.86 1015.86 1015.74 1015.62 1015.42 1015.22 1015.02 1014.82 1014.62 1014.46 1014.26 1014.02 1013.82 1013.62 1013.46 1013.22 1013.02 1012.82
1032.38 1032.02 1031.74 1031.42 1031.14 1030.86 1030.62 1030.34 1030.10 1029.74 1029.42 1029.06 1028.86 1028.62 1028.38 1028.06 1027.78 1027.46 1027.18 1026.86 1026.54 1026.18 1025.86 1025.46 1025.18 1024.82 1024.50 1024.14 1023.74 1023.30 1022.90 1022.50 1022.18 1021.78 1021.42 1021.06 1020.74 1020.46 1020.14 1019.82 1019.54 1019.18 1018.66 1018.06 1017.46 1017.02 1016.66 1016.34 1016.02 1015.90 1015.86 1015.86 1015.90 1015.86 1015.74 1015.58 1015.42 1015.22 1015.02 1014.82 1014.66 1014.50 1014.30 1014.02 1013.86 1013.66 1013.46 1013.26 1013.06
1032.42 1032.10 1031.78 1031.46 1031.18 1030.90 1030.66 1030.42 1030.18 1029.82 1029.46 1029.14 1028.90 1028.70 1028.42 1028.10 1027.82 1027.50 1027.26 1026.98 1026.62 1026.26 1025.90 1025.58 1025.22 1024.90 1024.50 1024.14 1023.74 1023.34 1022.94 1022.54 1022.18 1021.82 1021.50 1021.18 1020.82 1020.50 1020.18 1019.90 1019.62 1019.26 1018.78 1018.22 1017.62 1017.06 1016.66 1016.34 1016.02 1015.86 1015.86 1015.90 1015.90 1015.90 1015.86 1015.74 1015.58 1015.42 1015.22 1015.02 1014.86 1014.70 1014.54 1014.34 1014.14 1013.90 1013.70 1013.50 1013.30
1032.46 1032.10 1031.78 1031.54 1031.22 1030.98 1030.74 1030.46 1030.18 1029.86 1029.50 1029.22 1028.98 1028.74 1028.46 1028.18 1027.90 1027.62 1027.34 1027.02 1026.66 1026.26 1025.90 1025.58 1025.22 1024.90 1024.46 1024.10 1023.70 1023.34 1022.98 1022.58 1022.18 1021.86 1021.54 1021.22 1020.90 1020.58 1020.26 1019.94 1019.70 1019.34 1018.90 1018.38 1017.78 1017.18 1016.70 1016.26 1015.98 1015.90 1015.90 1015.98 1016.02 1015.98 1015.94 1015.82 1015.66 1015.50 1015.34 1015.18 1014.98 1014.86 1014.74 1014.58 1014.38 1014.18 1013.94 1013.74 1013.54
1032.46 1032.14 1031.86 1031.58 1031.30 1031.02 1030.74 1030.46 1030.22 1029.90 1029.54 1029.26 1029.02 1028.78 1028.50 1028.18 1027.90 1027.62 1027.34 1027.02 1026.66 1026.34 1026.02 1025.70 1025.34 1024.98 1024.58 1024.18 1023.78 1023.42 1023.02 1022.62 1022.26 1021.90 1021.62 1021.30 1021.02 1020.66 1020.34 1020.02 1019.78 1019.46 1019.02 1018.50 1017.94 1017.38 1016.82 1016.38 1016.18 1016.06 1016.06 1016.10 1016.14 1016.10 1015.98 1015.90 1015.74 1015.62 1015.46 1015.30 1015.10 1015.02 1014.90 1014.78 1014.62 1014.42 1014.18 1013.98 1013.74
1032.46 1032.14 1031.86 1031.62 1031.34 1031.02 1030.74 1030.46 1030.18 1029.90 1029.54 1029.26 1029.06 1028.82 1028.54 1028.26 1027.94 1027.66 1027.38 1027.06 1026.74 1026.46 1026.14 1025.82 1025.46 1025.10 1024.70 1024.34 1023.94 1023.50 1023.06 1022.70 1022.34 1022.02 1021.66 1021.38 1021.06 1020.74 1020.42 1020.14 1019.90 1019.62 1019.18 1018.62 1018.10 1017.54 1017.02 1016.62 1016.42 1016.34 1016.30 1016.30 1016.30 1016.18 1016.06 1015.98 1015.82 1015.74 1015.58 1015.38 1015.22 1015.14 1015.02 1014.90 1014.74 1014.66 1014.46 1014.22 1014.02
1032.46 1032.18 1031.90 1031.66 1031.38 1031.06 1030.74 1030.46 1030.18 1029.86 1029.58 1029.30 1029.06 1028.82 1028.58 1028.34 1028.02 1027.74 1027.46 1027.14 1026.78 1026.50 1026.18 1025.86 1025.50 1025.14 1024.74 1024.34 1023.94 1023.58 1023.18 1022.82 1022.46 1022.10 1021.78 1021.46 1021.14 1020.82 1020.50 1020.22 1020.02 1019.66 1019.26 1018.74 1018.22 1017.66 1017.14 1016.74 1016.62 1016.54 1016.50 1016.46 1016.46 1016.34 1016.22 1016.02 1015.90 1015.82 1015.70 1015.50 1015.38 1015.26 1015.18 1015.02 1014.90 1014.78 1014.62 1014.42 1014.22
1032.46 1032.22 1031.94 1031.70 1031.42 1031.10 1030.78 1030.46 1030.14 1029.82 1029.58 1029.34 1029.10 1028.86 1028.62 1028.34 1028.02 1027.82 1027.58 1027.22 1026.90 1026.54 1026.18 1025.90 1025.50 1025.14 1024.74 1024.38 1024.02 1023.62 1023.30 1022.98 1022.62 1022.26 1021.90 1021.58 1021.26 1020.90 1020.58 1020.34 1020.06 1019.74 1019.30 1018.86 1018.34 1017.74 1017.22 1016.90 1016.78 1016.74 1016.70 1016.66 1016.58 1016.46 1016.34 1016.22 1016.06 1015.94 1015.78 1015.62 1015.50 1015.38 1015.30 1015.18 1015.02 1014.90 1014.78 1014.58 1014.38
1032.50 1032.30 1032.02 1031.74 1031.46 1031.14 1030.82 1030.54 1030.18 1029.82 1029.58 1029.38 1029.18 1028.94 1028.70 1028.42 1028.10 1027.86 1027.62 1027.30 1026.94 1026.62 1026.30 1025.94 1025.58 1025.22 1024.86 1024.50 1024.14 1023.74 1023.46 1023.14 1022.74 1022.42 1022.06 1021.70 1021.38 1021.02 1020.70 1020.38 1020.14 1019.78 1019.42 1018.94 1018.42 1017.86 1017.34 1017.02 1016.94 1016.90 1016.86 1016.74 1016.70 1016.62 1016.50 1016.38 1016.22 1016.06 1015.90 1015.78 1015.66 1015.58 1015.46 1015.30 1015.14 1015.02 1014.90 1014.74 1014.58
1032.50 1032.30 1032.06 1031.78 1031.46 1031.18 1030.90 1030.58 1030.18 1029.90 1029.62 1029.38 1029.18 1029.02 1028.78 1028.50 1028.18 1027.90 1027.66 1027.38 1027.10 1026.74 1026.38 1025.98 1025.66 1025.34 1025.02 1024.70 1024.30 1023.90 1023.58 1023.22 1022.90 1022.62 1022.22 1021.86 1021.50 1021.14 1020.82 1020.50 1020.18 1019.86 1019.50 1019.02 1018.50 1017.94 1017.42 1017.02 1017.02 1016.98 1016.90 1016.86 1016.82 1016.74 1016.66 1016.54 1016.42 1016.26 1016.10 1015.94 1015.78 1015.70 1015.62 1015.46 1015.34 1015.18 1015.02 1014.90 1014.74
1032.50 1032.30 1032.06 1031.78 1031.54 1031.22 1030.90 1030.58 1030.22 1029.90 1029.62 1029.42 1029.18 1029.02 1028.78 1028.58 1028.30 1028.02 1027.74 1027.50 1027.26 1026.90 1026.50 1026.10 1025.74 1025.46 1025.18 1024.78 1024.42 1023.98 1023.62 1023.30 1023.02 1022.74 1022.42 1022.02 1021.70 1021.30 1020.94 1020.62 1020.30 1019.94 1019.54 1019.10 1018.62 1018.02 1017.46 1017.06 1017.02 1017.02 1016.98 1016.94 1016.90 1016.90 1016.82 1016.70 1016.58 1016.42 1016.26 1016.14 1015.98 1015.86 1015.74 1015.66 1015.54 1015.42 1015.26 1015.14 1014.90
1032.46 1032.26 1032.02 1031.78 1031.54 1031.26 1030.94 1030.58 1030.22 1029.94 1029.70 1029.46 1029.26 1029.02 1028.82 1028.62 1028.38 1028.10 1027.82 1027.58 1027.26 1026.90 1026.54 1026.14 1025.78 1025.50 1025.18 1024.86 1024.46 1024.06 1023.70 1023.38 1023.10 1022.82 1022.50 1022.18 1021.82 1021.42 1021.06 1020.74 1020.42 1020.02 1019.62 1019.18 1018.66 1018.10 1017.58 1017.22 1017.06 1017.02 1017.02 1017.02 1017.02 1016.98 1016.90 1016.82 1016.74 1016.58 1016.42 1016.34 1016.18 1016.10 1015.98 1015.86 1015.74 1015.62 1015.50 1015.34 1015.18
1032.46 1032.22 1031.98 1031.74 1031.50 1031.22 1030.90 1030.54 1030.18 1029.90 1029.66 1029.46 1029.30 1029.06 1028.90 1028.66 1028.46 1028.18 1027.90 1027.62 1027.26 1026.90 1026.58 1026.18 1025.78 1025.50 1025.22 1024.90 1024.58 1024.18 1023.82 1023.46 1023.22 1022.90 1022.62 1022.26 1021.90 1021.54 1021.22 1020.90 1020.50 1020.10 1019.70 1019.22 1018.74 1018.18 1017.70 1017.42 1017.18 1017.10 1017.10 1017.10 1017.10 1017.06 1017.02 1016.94 1016.90 1016.74 1016.66 1016.58 1016.46 1016.34 1016.18 1016.02 1015.94 1015.86 1015.74 1015.62 1015.46
Wind_Speed
13 12 11 11 11 10 10 10 10 10 10 10 11 11 11 11 11 10 10 11 10 11 11 11 11 12 15 18 19 19 19 19 19 20 20 21 20 20 20 19 19 19 20 20 19 17 16 15 14 12 10 10 10 11 11 10 11 12 12 12 11 12 13 14 15 15 16 16 12
14 13 13 12 12 11 10 10 10 11 11 10 10 10 11 10 10 10 11 11 11 11 11 11 12 14 16 19 19 18 18 18 20 20 20 20 20 20 20 19 20 20 20 20 19 16 14 15 14 12 10 10 10 10 10 10 11 12 13 14 12 11 11 13 14 15 15 15 12
14 13 13 13 13 12 11 10 11 12 13 12 11 10 10 10 10 10 11 12 13 13 12 11 13 15 17 18 18 17 18 18 19 19 19 18 19 20 20 19 21 21 21 20 19 17 16 16 14 12 10 9 10 10 10 11 11 12 13 14 12 10 10 10 11 12 11 10 11
14 14 13 13 15 15 13 11 13 14 14 12 11 11 10 10 10 10 11 13 14 13 13 13 13 14 16 17 18 19 19 19 19 19 19 18 19 20 20 20 21 21 21 20 20 20 19 18 14 11 10 11 11 11 10 10 11 11 10 10 10 10 10 9 10 10 9 9 9
15 14 13 13 15 15 14 13 14 15 13 11 11 10 10 10 10 11 12 12 13 13 14 16 15 14 15 17 19 20 20 20 19 18 17 19 19 20 20 21 21 21 20 20 21 21 21 20 13 10 10 10 9 9 9 11 11 11 10 9 9 9 9 9 9 9 8 8 7
15 15 15 14 15 15 14 13 15 15 13 12 12 12 12 11 11 12 13 13 14 15 16 17 16 16 16 18 19 19 19 18 17 17 18 19 18 19 20 21 21 21 20 21 21 21 20 18 13 10 10 10 10 10 10 12 11 11 11 10 9 9 9 10 9 8 8 8 7
15 15 15 15 16 15 15 15 15 14 13 12 14 15 16 15 15 16 16 15 14 15 15 14 15 16 17 18 18 18 17 17 16 17 18 18 18 19 20 20 21 21 21 21 21 20 18 16 12 11 11 11 10 12 13 12 11 11 11 11 10 9 9 10 8 7 7 7 7
15 15 15 16 16 16 16 17 15 14 13 12 14 16 18 18 19 18 18 16 15 14 14 13 15 17 18 18 18 18 17 17 17 17 17 17 19 19 20 20 20 20 21 21 20 20 18 14 11 11 11 10 10 12 15 17 15 13 12 12 11 10 9 8 7 6 5 6 6
15 15 16 16 16 16 17 17 16 15 14 14 15 17 18 19 19 18 17 15 15 15 15 14 17 18 19 19 19 18 17 16 16 17 17 17 18 19 19 18 19 20 20 20 20 20 18 13 11 11 11 10 10 12 14 18 18 17 15 11 10 9 8 7 5 5 5 5 5
16 16 16 15 16 17 17 17 16 16 16 15 17 18 18 18 18 17 16 14 15 16 16 16 17 18 19 19 19 17 16 15 15 16 17 17 18 18 18 17 18 19 19 19 18 18 17 13 12 13 13 11 12 13 14 16 17 17 16 12 12 11 9 6 5 5 5 5 5
17 17 16 16 17 17 17 17 15 15 15 15 16 17 18 17 17 17 16 16 17 18 18 18 18 18 18 17 17 17 16 15 15 15 16 17 17 17 17 17 18 19 19 19 17 16 14 12 14 15 16 14 13 13 14 15 16 16 16 14 15 15 14 11 9 8 6 6 6
17 17 17 16 17 17 17 16 15 14 14 15 16 17 17 16 17 18 18 18 18 18 18 18 18 18 17 15 16 17 16 16 16 16 16 17 17 17 17 17 18 18 19 19 17 15 13 14 15 16 17 17 13 12 13 15 15 15 15 15 15 15 15 14 13 10 8 8 7
17 17 17 17 18 17 17 16 14 14 14 15 16 16 16 16 17 18 18 19 18 17 17 17 18 17 16 16 16 17 17 16 17 17 17 17 17 17 16 16 17 17 18 17 16 15 15 15 16 17 17 17 14 13 13 14 14 14 15 15 15 15 15 16 15 13 12 10 9
17 17 17 17 18 17 16 15 14 13 14 16 16 16 16 16 17 17 17 17 18 17 17 17 16 16 16 17 17 18 18 17 17 18 18 18 17 17 17 16 16 17 16 15 16 16 17 16 16 16 16 16 15 14 14 14 13 13 14 14 15 15 15 15 15 15 14 13 11
17 17 17 17 17 16 15 15 13 13 14 15 16 16 16 15 16 16 17 18 18 17 16 16 16 16 17 18 18 19 19 18 18 18 18 18 18 18 17 16 17 17 16 15 15 16 17 17 16 16 15 16 15 15 14 13 13 13 13 13 14 14 14 15 15 15 14 14 13
16 17 17 17 17 16 15 15 12 12 14 15 16 16 16 15 15 16 17 18 17 16 16 17 17 16 16 17 18 18 18 18 18 18 18 18 18 18 18 18 17 17 17 16 16 16 16 16 15 15 15 15 14 14 13 13 13 13 13 13 13 14 14 15 15 14 14 14 14
16 17 17 17 17 17 16 15 13 13 14 16 17 17 16 15 15 16 17 18 17 16 17 19 17 16 16 17 17 17 17 17 17 17 18 18 18 18 18 18 18 18 17 16 16 16 16 16 14 14 14 14 13 13 13 13 12 12 13 13 13 13 14 14 14 14 14 14 14
17 17 17 17 17 17 17 17 16 15 16 17 17 17 16 16 16 17 17 18 18 18 19 19 18 17 17 17 17 16 15 16 17 17 18 18 18 18 18 18 18 18 17 16 16 16 16 15 14 13 12 12 12 12 12 12 11 12 12 13 13 13 13 14 14 13 13 14 14
17 17 17 17 17 17 17 17 17 17 17 17 17 17 17 17 18 18 18 18 19 19 19 19 18 18 17 18 17 16 16 16 17 18 19 18 18 18 18 19 19 19 18 17 16 15 15 14 13 12 12 11 11 11 11 11 11 11 12 12 12 12 13 13 13 13 13 14 14
17 17 17 17 17 17 17 17 17 17 17 16 17 17 18 18 18 19 19 19 19 19 19 19 18 18 18 18 18 18 17 15 17 18 19 19 18 18 19 19 19 19 18 17 16 15 13 12 11 11 11 11 11 11 11 11 11 11 11 11 11 12 12 12 13 13 13 14 14
17 17 17 17 17 17 17 16 16 17 17 17 17 18 18 18 19 19 20 20 20 19 19 19 19 19 19 19 19 18 17 15 17 18 18 18 18 19 19 18 19 18 18 18 16 14 11 9 9 9 10 10 10 11 11 11 11 11 11 11 11 12 12 13 13 13 14 14 15
16 16 17 17 17 17 17 17 16 16 17 17 17 17 17 18 19 19 20 20 19 19 19 19 18 18 18 18 18 18 17 16 17 17 17 17 17 18 18 17 18 18 19 19 16 12 8 6 6 7 9 9 10 11 11 11 11 11 12 12 12 13 13 13 13 13 13 14 14
16 16 16 15 16 17 17 17 17 17 17 17 17 17 17 18 19 19 20 19 19 19 19 17 17 17 18 18 18 18 18 18 18 18 18 17 17 18 17 16 16 17 18 18 15 9 4 2 4 6 8 8 9 10 11 11 11 11 11 12 12 13 13 13 13 13 13 14 14
16 16 15 14 16 17 17 17 17 17 17 18 17 17 17 18 19 19 20 20 19 19 18 16 16 16 17 17 17 18 18 19 19 19 19 18 18 17 17 15 15 15 16 16 16 11 5 3 4 5 7 8 8 9 9 10 10 10 11 12 12 12 12 12 13 13 13 14 13
16 16 16 16 17 17 17 17 17 18 18 18 17 17 17 18 19 19 19 19 19 19 19 18 17 16 16 16 17 17 18 18 18 19 19 18 18 17 16 14 13 13 14 17 23 18 11 10 8 7 6 7 8 8 9 9 10 11 11 11 11 11 12 12 13 13 13 13 13
16 16 17 17 17 17 17 18 18 18 18 18 17 17 17 18 18 19 19 19 19 19 18 17 16 16 16 15 16 17 17 17 17 17 18 17 18 17 16 14 12 12 14 20 27 22 15 15 13 10 8 6 7 8 8 8 10 11 11 11 11 11 11 12 12 12 12 11 12
17 17 17 17 17 17 18 18 18 18 19 18 17 17 18 18 18 18 19 19 19 18 17 15 15 15 15 15 16 17 18 16 17 17 17 17 17 17 17 15 13 12 15 23 29 24 17 15 14 13 10 7 7 7 7 8 9 10 10 11 11 11 11 11 11 12 11 11 11
17 17 18 18 18 18 18 18 18 19 19 18 17 17 18 19 19 19 19 18 18 17 16 14 14 13 12 13 15 17 18 18 17 16 16 16 16 17 16 15 14 15 19 27 30 27 21 14 13 13 11 8 6 6 7 8 8 9 9 9 10 10 11 10 10 10 10 11 10
18 18 18 18 19 19 18 18 19 19 18 18 17 18 18 19 19 19 19 18 18 17 15 13 13 12 12 14 16 17 17 18 16 16 15 16 17 17 16 16 15 18 22 29 31 29 25 16 13 12 11 9 6 5 6 7 7 8 8 8 9 10 10 10 10 10 10 10 10
18 18 18 18 18 18 18 18 19 18 18 17 17 18 18 19 19 19 19 19 18 17 15 14 14 14 15 16 16 16 16 16 16 16 16 17 18 17 17 16 16 17 22 29 30 30 28 21 13 10 10 10 7 5 5 6 7 7 7 7 8 10 10 10 11 11 10 9 10
18 18 18 18 18 18 18 18 18 18 17 17 17 18 19 19 19 19 18 18 17 17 17 17 17 18 18 17 16 16 16 16 16 16 16 17 18 18 17 17 16 18 21 28 30 31 30 27 15 10 9 9 7 6 5 6 6 6 7 7 8 10 10 10 10 11 11 10 10
17 17 18 18 18 18 18 18 18 17 17 17 18 18 19 19 18 18 17 17 17 17 18 18 19 19 18 18 18 17 17 17 17 17 17 17 18 18 17 16 16 17 21 27 29 30 30 30 17 10 9 10 7 6 6 6 6 6 7 8 9 10 10 9 9 10 11 10 9
17 17 18 18 18 18 18 18 17 17 17 17 18 18 19 19 18 18 17 16 16 17 18 18 18 18 18 18 18 18 18 17 17 18 18 18 18 18 17 16 14 17 21 27 28 30 30 29 18 12 10 11 8 6 6 6 5 6 6 8 9 10 10 11 10 10 10 10 9
16 17 18 18 18 17 17 17 17 17 17 17 18 18 19 19 18 18 17 16 16 16 16 16 16 16 16 17 17 17 17 16 17 18 19 18 18 18 17 15 13 16 22 26 27 28 28 27 17 13 11 10 7 6 6 7 6 6 7 8 9 10 10 11 10 10 10 9 8
16 17 17 17 17 17 17 17 17 17 17 17 18 18 19 18 18 17 17 17 17 16 16 16 16 16 16 16 16 17 17 17 18 18 19 19 18 18 17 16 15 18 23 26 26 27 27 24 16 13 11 9 7 6 6 7 7 7 8 9 9 10 11 11 10 10 9 8 8
16 17 17 17 17 17 17 17 17 17 17 17 18 18 19 18 17 16 16 17 17 17 16 16 16 16 17 17 17 17 17 17 18 19 19 19 18 18 18 18 17 20 23 25 25 26 26 23 14 11 10 7 6 5 6 6 6 7 8 9 9 10 11 11 11 10 9 7 8
15 16 17 17 17 17 17 17 17 17 17 17 17 17 18 18 17 16 15 16 16 16 17 16 16 17 17 18 17 17 16 17 18 19 19 19 18 18 18 18 18 19 21 23 25 25 25 22 13 10 8 6 6 5 5 5 5 6 7 8 9 10 10 10 10 10 9 7 9
15 15 16 16 16 17 17 17 17 17 17 17 16 16 16 17 16 15 15 15 15 15 16 16 16 16 17 17 17 16 16 17 18 18 18 18 18 18 19 18 18 18 19 22 24 25 24 21 12 9 8 6 5 5 5 5 5 6 6 7 7 8 9 8 9 9 9 10 12
15 15 15 15 16 17 17 17 16 16 16 16 16 16 16 16 15 15 15 14 14 14 15 15 16 16 16 17 16 15 16 17 18 18 18 17 18 19 19 18 18 18 19 22 24 25 24 22 11 9 8 6 5 4 4 4 5 6 6 6 7 8 8 8 8 9 10 12 15
14 14 15 15 16 16 16 16 16 15 14 15 15 16 16 16 15 15 14 13 14 14 14 14 15 16 16 16 15 15 16 17 17 17 17 17 18 19 20 18 18 18 20 23 24 25 24 22 11 8 7 5 4 4 3 4 5 6 6 6 6 7 7 8 8 8 9 11 14
14 14 15 15 15 16 16 16 16 15 14 14 15 15 14 15 15 14 14 13 14 14 13 13 15 16 16 15 13 13 15 17 17 17 17 17 17 18 18 18 18 19 20 23 25 25 24 22 13 9 7 5 4 3 3 4 5 6 6 6 6 6 6 7 7 8 9 10 11
Wind_Direction
341 343 344 343 341 339 337 335 335 335 334 331 327 324 323 323 325 327 329 328 325 322 319 316 316 315 315 316 316 317 318 320 321 322 322 323 323 323 323 322 321 319 317 314 313 311 309 306 301 295 287 280 274 270 267 265 265 265 266 265 266 267 267 267 266 265 264 263 262
340 342 344 344 342 340 337 335 335 335 333 329 325 324 324 325 327 328 328 327 323 319 316 314 314 314 314 315 316 317 318 319 321 322 323 324 324 324 325 323 322 321 319 317 316 315 312 310 305 298 289 281 275 270 266 263 262 264 265 265 265 266 265 264 263 263 263 263 263
340 342 344 344 343 342 339 337 335 334 332 328 325 325 326 328 328 328 326 324 321 318 316 314 314 314 314 315 316 317 318 318 320 322 323 324 325 325 325 325 324 322 321 320 320 319 317 315 308 300 290 283 277 272 267 263 261 262 263 264 264 264 263 261 261 261 261 261 261
340 342 344 344 343 342 340 337 335 333 331 328 326 326 328 330 329 328 325 322 319 318 316 316 314 315 316 317 317 317 317 317 321 322 323 324 324 325 326 326 326 325 323 322 323 323 322 319 311 301 292 287 280 274 268 263 261 260 260 261 262 262 262 261 261 261 261 260 261
341 342 343 342 342 341 339 337 335 333 331 327 327 329 331 331 330 327 325 323 320 319 317 316 316 316 317 318 317 316 316 317 321 323 324 324 324 325 327 328 328 327 325 325 325 326 325 323 315 307 303 300 292 280 270 266 264 262 261 261 261 260 260 258 259 259 260 262 264
339 340 341 340 340 339 338 337 334 332 330 327 329 332 333 333 331 329 327 323 320 318 317 317 318 318 318 318 317 316 316 318 322 324 325 324 325 326 328 329 330 329 327 326 327 327 327 326 321 319 321 321 313 301 288 276 269 265 263 262 261 259 257 257 258 260 262 264 268
337 338 339 339 339 339 338 336 334 332 330 328 331 333 334 333 331 329 327 323 321 320 320 320 321 320 319 318 316 315 316 319 322 324 325 325 325 327 329 331 331 331 329 327 328 329 329 328 327 329 331 332 329 326 321 311 293 279 269 265 261 259 259 261 264 264 264 263 268
334 336 338 338 338 337 337 336 334 332 330 330 333 334 334 333 331 330 328 325 323 323 323 321 320 319 319 318 316 315 316 319 323 325 326 325 326 328 330 332 332 332 331 329 329 329 330 329 330 332 333 334 335 338 339 336 326 311 293 277 268 263 262 265 265 263 262 265 274
334 336 337 337 337 337 336 335 333 331 330 331 333 334 334 333 332 331 329 326 325 324 323 321 320 320 319 318 317 316 316 320 323 325 325 325 326 329 331 332 333 333 332 330 329 329 330 329 331 333 334 334 336 340 342 343 341 336 327 308 293 283 277 272 269 268 271 277 288
333 335 336 336 337 336 335 334 332 331 331 331 333 334 334 334 333 332 330 327 325 324 323 321 321 321 320 319 318 317 317 319 323 324 324 324 326 328 330 332 333 333 332 331 329 329 329 329 331 334 335 335 337 340 344 346 347 347 346 342 338 336 333 330 318 309 304 305 308
333 334 335 336 336 335 334 333 332 331 332 333 334 334 334 334 334 332 330 328 326 324 323 322 322 322 321 320 318 317 317 318 322 323 323 323 325 327 329 331 332 332 332 331 330 329 329 329 331 333 335 337 339 343 347 350 351 352 352 352 351 350 349 346 340 334 326 322 319
333 334 335 336 336 335 333 333 331 331 332 333 334 334 334 334 333 333 332 330 328 326 324 323 323 322 321 320 319 318 317 317 320 322 322 323 324 326 328 330 331 332 332 332 331 329 327 328 330 332 334 337 340 344 349 352 354 354 354 353 352 350 348 346 343 340 334 328 324
335 335 336 336 335 334 333 333 331 331 332 334 334 334 334 333 333 333 333 332 330 327 325 324 323 322 321 320 320 319 318 318 319 321 322 323 324 327 329 330 330 331 331 331 331 329 327 327 329 330 332 336 339 344 349 354 356 357 356 355 355 353 351 348 345 341 337 333 329
335 336 336 336 335 335 334 333 331 331 332 334 334 334 333 332 333 334 334 332 331 328 326 324 323 322 321 321 321 321 320 319 319 320 321 322 325 327 329 329 330 330 330 330 329 328 326 325 327 329 331 333 336 342 348 354 357 359 359 358 357 356 353 350 347 344 340 336 333
336 337 336 336 336 335 334 334 332 331 332 333 333 333 332 332 333 334 333 333 331 329 327 326 324 322 320 321 322 323 323 321 321 320 321 323 325 327 329 329 329 329 328 328 327 326 325 324 325 327 330 331 334 339 345 353 357 359 0 360 359 357 355 353 350 347 343 338 335
337 337 337 337 336 335 334 334 332 331 332 332 332 332 331 331 332 333 333 333 331 329 328 327 324 322 321 321 323 324 324 323 322 322 322 323 326 328 329 329 329 328 327 326 326 325 323 322 323 325 328 329 331 336 342 350 355 358 360 360 359 358 356 355 353 350 345 340 337
337 337 337 336 336 335 334 333 332 331 331 331 331 331 331 331 331 332 332 332 331 329 327 326 325 323 322 322 324 325 324 324 324 323 323 324 327 328 329 329 327 327 326 325 325 323 321 320 321 323 326 328 330 334 340 346 351 355 357 357 357 357 356 355 354 351 347 343 339
337 337 337 336 335 334 333 332 331 330 330 330 330 330 330 330 331 330 330 331 330 329 328 326 325 324 323 323 324 324 325 324 323 323 324 325 327 327 328 327 326 326 325 325 324 322 319 317 319 322 325 328 330 333 338 345 349 352 353 354 355 355 355 354 353 351 349 346 342
337 337 336 335 334 333 331 330 330 329 329 328 328 328 328 329 330 330 330 330 330 329 328 327 326 325 324 324 325 325 325 324 323 323 324 326 327 327 327 327 326 326 326 325 324 320 316 313 317 321 325 328 331 335 340 345 349 351 352 353 354 353 353 353 352 351 350 348 345
337 336 335 334 332 331 330 328 328 327 327 327 327 327 328 329 331 332 331 330 330 329 328 327 326 325 325 326 326 327 327 325 324 324 325 327 328 328 327 327 327 326 326 326 323 319 313 310 316 322 327 330 335 339 343 347 349 352 353 354 354 354 354 353 352 351 350 350 347
336 335 333 332 331 329 328 327 326 326 326 326 326 326 328 330 332 333 332 330 329 329 328 328 327 326 326 327 327 328 327 325 324 325 326 327 327 327 327 328 328 327 327 327 323 316 308 305 316 324 329 333 339 343 346 348 351 353 355 357 357 356 356 356 355 354 353 352 350
335 333 332 331 329 328 327 326 326 326 326 327 327 327 328 331 333 333 332 330 330 329 329 328 327 327 327 327 328 328 327 325 324 325 326 327 327 327 328 329 329 329 328 327 322 313 301 300 320 330 335 338 343 346 348 349 351 354 356 358 358 358 358 359 358 357 355 354 351
334 332 331 330 329 328 327 327 327 328 328 329 328 328 330 334 335 334 333 331 331 330 329 328 326 326 327 328 328 328 327 326 325 326 327 327 326 327 329 331 332 331 329 326 321 314 297 301 338 344 344 345 346 347 348 349 351 354 357 359 360 359 359 360 360 359 358 356 354
333 332 331 330 330 329 329 329 330 331 331 330 329 330 333 336 336 335 333 332 331 330 329 327 326 326 327 329 329 329 328 327 327 327 327 327 327 328 331 334 334 333 329 324 327 333 355 55 20 3 356 351 349 348 348 349 353 356 359 1 1 0 360 1 1 1 0 359 357
333 332 332 332 332 332 332 332 333 333 333 331 330 332 336 339 337 335 333 332 332 330 329 326 326 328 330 331 330 330 329 328 328 328 327 327 328 330 333 336 336 333 328 323 332 342 8 41 34 22 7 357 352 350 350 352 357 360 2 3 3 1 1 1 2 3 2 1 359
333 333 334 334 334 334 335 335 335 334 333 331 332 336 340 340 337 335 334 333 332 330 329 327 329 331 333 333 331 330 330 329 328 328 327 327 329 332 335 337 337 333 328 325 337 349 15 33 31 28 20 4 356 353 354 355 359 2 4 5 4 3 2 1 2 2 2 1 0
334 335 335 336 336 337 337 337 336 335 334 333 336 340 341 340 337 335 334 333 332 330 329 329 332 334 334 333 331 330 330 329 328 327 327 327 330 333 335 336 335 332 329 328 340 352 12 28 28 28 25 16 4 359 358 358 360 2 4 4 4 3 2 2 2 2 2 1 2
335 336 336 337 338 338 338 338 337 335 334 335 339 341 341 338 336 335 334 334 333 332 331 332 334 335 334 332 330 330 329 329 329 328 327 329 332 335 336 335 334 332 331 332 339 348 360 16 24 27 27 25 13 4 2 2 1 2 3 3 2 1 1 2 3 4 4 3 4
335 336 337 338 339 339 339 338 337 335 335 337 341 341 340 337 336 336 335 335 334 334 334 334 334 334 333 331 329 329 329 329 329 328 329 331 336 337 337 336 334 332 332 333 337 343 351 3 17 26 29 30 22 11 5 5 4 2 1 0 360 359 359 1 3 5 6 6 8
335 336 337 338 338 338 338 338 335 334 334 338 341 341 339 337 337 337 337 336 335 334 334 333 333 333 332 331 329 329 329 329 329 330 332 334 337 338 337 336 335 333 333 334 336 340 346 353 3 20 32 33 29 19 8 6 4 2 359 357 358 358 358 359 2 4 7 9 11
334 335 337 338 338 338 337 336 333 333 334 339 341 341 339 338 337 337 337 335 334 333 333 333 333 332 332 331 330 330 329 329 330 333 335 337 338 338 337 337 337 334 333 335 335 337 341 348 356 17 37 36 32 23 11 6 4 1 358 354 356 357 358 357 359 2 5 9 13
333 335 336 338 337 336 335 334 332 332 335 339 341 341 340 338 337 337 336 334 333 333 334 334 334 333 332 332 331 331 330 330 333 335 337 338 338 338 339 340 339 336 334 335 336 336 339 347 0 26 46 38 32 23 13 9 6 1 357 353 355 358 360 360 359 359 1 6 13
331 334 336 337 335 334 333 333 332 333 335 339 340 340 340 338 337 336 336 335 334 334 334 333 333 332 332 332 331 331 331 332 335 337 338 339 340 340 341 342 340 337 335 336 336 336 339 348 11 38 51 36 29 20 13 12 9 4 359 355 357 360 2 3 2 359 359 3 15
331 333 335 335 334 333 332 332 331 333 336 338 340 340 339 338 337 337 336 335 335 334 332 331 331 330 330 331 331 332 333 335 338 339 340 341 341 342 343 345 341 337 336 336 336 336 339 350 18 42 50 33 26 17 11 12 12 8 3 359 360 2 5 6 5 2 1 5 21
331 333 334 334 333 332 331 331 331 333 336 338 340 340 339 338 337 336 336 334 333 332 331 330 330 330 331 332 333 333 335 337 340 342 343 343 342 343 344 346 342 338 337 336 336 336 339 351 19 43 49 32 24 16 11 11 12 10 6 3 5 6 8 9 9 6 5 11 32
331 332 332 332 331 331 331 331 331 333 335 338 339 340 339 337 336 335 335 334 333 332 330 330 331 332 334 335 335 335 337 339 342 344 344 344 344 344 346 347 343 339 337 337 336 336 339 350 19 43 49 33 24 16 12 10 10 9 8 7 8 10 11 12 11 10 11 21 46
329 330 330 330 330 330 330 330 330 332 335 338 339 339 338 336 335 334 334 335 333 331 330 329 331 333 335 335 335 336 338 341 345 345 345 345 345 346 348 348 344 339 337 337 336 335 337 349 18 45 51 35 27 20 15 12 10 9 9 9 10 12 14 14 12 12 17 33 61
327 328 328 328 328 329 328 328 329 331 334 336 338 338 338 336 334 334 334 335 332 330 328 327 330 332 333 333 333 335 339 344 346 346 346 345 346 348 349 349 344 339 337 336 336 334 336 347 17 47 57 43 34 26 20 15 14 13 12 10 10 14 17 18 14 13 20 35 60
325 326 327 327 328 327 327 326 327 329 332 334 336 337 338 337 335 333 332 332 329 327 325 325 328 330 331 332 332 336 341 346 347 347 346 345 346 348 350 349 344 339 337 336 335 333 335 346 15 50 64 52 43 35 28 23 21 19 17 13 12 15 19 22 20 18 21 29 47
323 324 325 327 327 326 325 323 325 327 330 333 335 337 337 337 334 331 330 328 327 326 325 324 327 329 331 332 332 337 343 347 347 346 345 344 344 347 349 348 344 340 338 336 334 334 338 350 16 54 72 59 51 44 39 34 32 28 23 18 15 16 19 23 25 25 24 24 35
320 322 324 326 326 324 323 321 322 325 328 332 334 336 336 336 333 331 329 327 327 327 326 325 328 330 332 332 333 338 344 347 346 345 343 342 343 345 348 347 344 342 340 338 337 340 346 358 18 51 79 69 58 51 48 46 41 36 30 24 20 18 19 22 26 29 29 28 33